sat.trackr.live / text

‹ back to catalog

STARLINK-34951

NORAD 65293 · 2025-184W

PAYLOAD ACTIVE UNKNOWN

§ Identity

Operator
Country
US
Launch date
2025-08-22
Launch site
AFWTR
Launch vehicle
Mass (kg)
RCS (m²)

Purposes: comms

External: N2YO · Heavens-Above · Gunter

§ Orbital elements

Epoch: 2026-05-25T03:23:58.932384Z

Period
95.64 min
Inclination
97.4502°
Eccentricity
0.0000437
Mean motion
15.05642952 rev/d
Perigee alt
549.2 km
Apogee alt
549.8 km
Semi-major
6,927.7 km
B*
-1.2949e-4
RAAN
197.6390°
Arg perigee
58.4917°
Mean anomaly
301.6353°
Rev number
4,280

§ Raw data

STARLINK-349511 65293U 25184W   26145.14165431 -.00001926  00000+0 -12949-3 0  99952 65293  97.4502 197.6390 0000437  58.4917 301.6353 15.05642952 42801

JSON: /api/v1/satellites/65293 · /tle

For live sub-satellite position, see the globe view (requires WebGL).

§ Visibility from observer

Set your observer location to see the next 7 days of passes ≥ 10°. The values pass through the URL so the page stays shareable.

No JS? Fill the form by hand. The geolocation button needs JavaScript.